This is the latest recevied weather packets stored in our database for station/object CA3DPI. If no packets are shown the sender has not sent any weather packets the latest 10 day(s).
| Time | Temp. | Humidity | Pressure | Rain* | Wind** | Luminosity | Snow |
|---|---|---|---|---|---|---|---|
| 1777707417 | 10.56° C | 51% | 1021.9 hPa | - | - | - | - |
| 1777706817 | 11.11° C | 50% | 1022 hPa | - | - | - | - |
| 1777706217 | 11.11° C | 55% | 1022.1 hPa | - | - | - | - |
| 1777705616 | 11.11° C | 55% | 1022.3 hPa | - | - | - | - |
| 1777705016 | 11.11° C | 55% | 1022.3 hPa | - | - | - | - |
| 1777704416 | 11.11° C | 55% | 1022.4 hPa | - | - | - | - |
| 1777703816 | 11.67° C | 54% | 1022.5 hPa | - | - | - | - |
| 1777703216 | 11.11° C | 53% | 1022.6 hPa | - | - | - | - |
| 1777702616 | 11.67° C | 51% | 1022.6 hPa | - | - | - | - |
| 1777702015 | 12.22° C | 54% | 1022.9 hPa | - | - | - | - |
| 1777701415 | 12.22° C | 55% | 1022.8 hPa | - | - | - | - |
| 1777700815 | 12.22° C | 54% | 1022.9 hPa | - | - | - | - |
| 1777700215 | 12.22° C | 54% | 1023 hPa | - | - | - | - |
| 1777699615 | 12.22° C | 55% | 1023 hPa | - | - | - | - |
| 1777699015 | 12.22° C | 54% | 1023 hPa | - | - | - | - |
| 1777698414 | 12.78° C | 54% | 1023.1 hPa | - | - | - | - |
| 1777697814 | 12.78° C | 54% | 1023.1 hPa | - | - | - | - |
| 1777697214 | 12.78° C | 51% | 1023.1 hPa | - | - | - | - |
| 1777696614 | 12.78° C | 54% | 1023.3 hPa | - | - | - | - |
| 1777696014 | 12.78° C | 54% | 1023.3 hPa | - | - | - | - |
| 1777695414 | 12.78° C | 52% | 1023.4 hPa | - | - | - | - |
| 1777694813 | 13.33° C | 54% | 1023.6 hPa | - | - | - | - |
| 1777694213 | 12.78° C | 53% | 1023.6 hPa | - | - | - | - |
| 1777693613 | 13.33° C | 53% | 1023.6 hPa | - | - | - | - |
| 1777693013 | 13.33° C | 55% | 1023.7 hPa | - | - | - | - |
* Rain since midnight (hover to see other rain measurements)
** Current wind speed in m/s (hover to see current wind gust speed)